Hays, KS

4:14 AM CST on November 20, 2017 (GMT -0600)
Hays Regional

Weather History for KHYS - November, 2012

Change the Weather History Date:

Sunday, November 11, 2012

  Actual Average Record
Temperature  
Mean Temperature 30 °F -  
Max Temperature 39 °F 53 °F 77 °F (1999)
Min Temperature 19 °F 30 °F 14 °F (2014)
Degree Days  
Heating Degree Days 35    
Moisture  
Dew Point 12 °F    
Average Humidity 47    
Maximum Humidity 65    
Minimum Humidity 30    
Precipitation  
Precipitation 0.00 in - - ()
Sea Level Pressure  
Sea Level Pressure 30.03 in    
Wind  
Wind Speed 17 mph (NNW)    
Max Wind Speed 26 mph    
Max Gust Speed 32 mph    
Visibility 10 miles    
Events      
Averages and records for this station are not official NWS values.
T = Trace of Precipitation, MM = Missing Value Source: NWS Daily Summary

Daily Weather History Graph

Daily Weather History Graph

Search for Another Location

Airport or City:

Trip Planner

Search our weather history database for the weather conditions in past years. The results will help you decide how hot, cold, wet, or windy it might be!

Date:

Astronomy

Nov. 11, 2012 Rise Set
Actual Time 7:15 AM CST 5:26 PM CST
Civil Twilight 6:47 AM CST 5:54 PM CST
Nautical Twilight 6:15 AM CST 6:26 PM CST
Astronomical Twilight 5:44 AM CST 6:57 PM CST
Moon 4:32 AM CST (11/11) 3:49 PM CST (11/11)
Length of Visible Light 11h 06m
Length of Day
10h 10m
Waning Crescent, 7% of the Moon is Illuminated
Nov 11
Waning Crescent
Nov 13
New
Nov 20
First Quarter
Nov 28
Full
Dec 6
Last Quarter

Hourly Weather History & Observations

Time (CST) Temp. Windchill Dew Point Humidity Pressure Visibility Wind Dir Wind Speed Gust Speed Precip Events Conditions
12:15 AM 39.2 °F 30.8 °F 28.4 °F 65% 29.78 in 10.0 mi North 15.0 mph - N/A   Overcast
12:35 AM 37.4 °F 27.2 °F 24.8 °F 60% 29.82 in 10.0 mi NNW 19.6 mph 25.3 mph N/A   Overcast
12:55 AM 35.6 °F 24.5 °F 24.8 °F 65% 29.81 in 10.0 mi NNW 20.7 mph 24.2 mph N/A   Overcast
1:15 AM 35.6 °F 24.0 °F 21.2 °F 56% 29.83 in 10.0 mi NNW 23.0 mph 27.6 mph N/A   Overcast
1:35 AM 33.8 °F 23.2 °F 21.2 °F 60% 29.82 in 10.0 mi NNW 17.3 mph - N/A   Mostly Cloudy
1:55 AM 33.8 °F 24.3 °F 21.2 °F 60% 29.80 in 10.0 mi NNW 13.8 mph - N/A   Partly Cloudy
2:15 AM 32.0 °F 21.2 °F 21.2 °F 64% 29.81 in 10.0 mi NNW 16.1 mph 20.7 mph N/A   Clear
2:35 AM 32.0 °F 20.8 °F 21.2 °F 64% 29.82 in 10.0 mi NNW 17.3 mph - N/A   Clear
2:55 AM 30.2 °F 18.9 °F 19.4 °F 64% 29.83 in 10.0 mi NNW 16.1 mph 26.5 mph N/A   Clear
3:15 AM 30.2 °F 18.1 °F 17.6 °F 60% 29.85 in 10.0 mi NNW 18.4 mph - N/A   Clear
3:35 AM 30.2 °F 18.5 °F 17.6 °F 60% 29.84 in 10.0 mi NNW 17.3 mph 26.5 mph N/A   Clear
3:55 AM 30.2 °F 16.8 °F 17.6 °F 60% 29.84 in 10.0 mi NNW 23.0 mph 26.5 mph N/A   Partly Cloudy
4:15 AM 30.2 °F 16.2 °F 15.8 °F 55% 29.84 in 10.0 mi NNW 25.3 mph 31.1 mph N/A   Mostly Cloudy
4:35 AM 28.4 °F 14.1 °F 15.8 °F 59% 29.86 in 10.0 mi NNW 24.2 mph 31.1 mph N/A   Mostly Cloudy
4:55 AM 28.4 °F 15.1 °F 15.8 °F 59% 29.86 in 10.0 mi NNW 20.7 mph 26.5 mph N/A   Overcast
5:35 AM 28.4 °F 14.1 °F 14.0 °F 55% 29.90 in 10.0 mi NNW 24.2 mph 31.1 mph N/A   Overcast
5:55 AM 28.4 °F 17.0 °F 14.0 °F 55% 29.92 in 10.0 mi NNW 15.0 mph - N/A   Overcast
6:15 AM 28.4 °F 15.1 °F 14.0 °F 55% 29.92 in 10.0 mi NNW 20.7 mph 27.6 mph N/A   Overcast
6:55 AM 26.6 °F 12.0 °F 12.2 °F 55% 29.94 in 10.0 mi NNW 23.0 mph 26.5 mph N/A   Overcast
7:35 AM 24.8 °F 11.1 °F 10.4 °F 54% 29.95 in 10.0 mi NNW 18.4 mph 23.0 mph N/A   Clear
8:15 AM 24.8 °F 11.1 °F 10.4 °F 54% 29.98 in 10.0 mi NNW 18.4 mph 23.0 mph N/A   Clear
8:35 AM 24.8 °F 10.7 °F 10.4 °F 54% 30.00 in 10.0 mi NNW 19.6 mph - N/A   Clear
9:35 AM 26.6 °F 11.4 °F 8.6 °F 47% 30.01 in 10.0 mi North 25.3 mph 32.2 mph N/A   Clear
9:55 AM 28.4 °F 13.5 °F 8.6 °F 43% 30.02 in 10.0 mi North 26.5 mph 32.2 mph N/A   Clear
10:15 AM 28.4 °F 14.1 °F 8.6 °F 43% 30.03 in 10.0 mi North 24.2 mph 29.9 mph N/A   Clear
10:35 AM 30.2 °F 16.5 °F 8.6 °F 40% 30.03 in 10.0 mi NNW 24.2 mph 28.8 mph N/A   Clear
11:15 AM 30.2 °F 16.8 °F 6.8 °F 37% 30.05 in 10.0 mi North 23.0 mph - N/A   Clear
11:35 AM 32.0 °F 19.2 °F 6.8 °F 35% 30.04 in 10.0 mi NNW 23.0 mph 26.5 mph N/A   Clear
11:55 AM 33.8 °F 21.9 °F 8.6 °F 35% 30.04 in 10.0 mi North 21.9 mph 27.6 mph N/A   Clear
12:15 PM 33.8 °F 21.9 °F 6.8 °F 32% 30.04 in 10.0 mi North 21.9 mph 27.6 mph N/A   Clear
12:35 PM 33.8 °F 23.2 °F 6.8 °F 32% 30.04 in 10.0 mi North 17.3 mph 24.2 mph N/A   Clear
12:55 PM 35.6 °F 24.8 °F 8.6 °F 33% 30.04 in 10.0 mi NNW 19.6 mph 26.5 mph N/A   Clear
1:15 PM 35.6 °F 26.2 °F 8.6 °F 33% 30.04 in 10.0 mi NNW 15.0 mph 23.0 mph N/A   Clear
1:35 PM 35.6 °F 26.6 °F 8.6 °F 33% 30.04 in 10.0 mi NNW 13.8 mph 23.0 mph N/A   Clear
1:55 PM 37.4 °F 28.2 °F 8.6 °F 30% 30.04 in 10.0 mi NNW 16.1 mph - N/A   Clear
2:15 PM 37.4 °F 29.3 °F 10.4 °F 33% 30.04 in 10.0 mi NNW 12.7 mph 20.7 mph N/A   Clear
2:35 PM 37.4 °F 28.9 °F 12.2 °F 36% 30.04 in 10.0 mi NW 13.8 mph 17.3 mph N/A   Clear
2:55 PM 39.2 °F 31.2 °F 12.2 °F 33% 30.05 in 10.0 mi NNW 13.8 mph - N/A   Clear
3:15 PM 39.2 °F 30.8 °F 12.2 °F 33% 30.05 in 10.0 mi NNW 15.0 mph 18.4 mph N/A   Clear
3:35 PM 39.2 °F 31.2 °F 12.2 °F 33% 30.06 in 10.0 mi NNW 13.8 mph 19.6 mph N/A   Clear
3:55 PM 37.4 °F 28.9 °F 10.4 °F 33% 30.08 in 10.0 mi NNW 13.8 mph - N/A   Clear
4:15 PM 37.4 °F 29.8 °F 10.4 °F 33% 30.08 in 10.0 mi NNW 11.5 mph - N/A   Mostly Cloudy
4:35 PM 37.4 °F 30.3 °F 12.2 °F 36% 30.09 in 10.0 mi NNW 10.4 mph - N/A   Mostly Cloudy
4:55 PM 37.4 °F 29.8 °F 10.4 °F 33% 30.10 in 10.0 mi NNW 11.5 mph - N/A   Mostly Cloudy
5:15 PM 37.4 °F 30.8 °F 10.4 °F 33% 30.11 in 10.0 mi NNW 9.2 mph - N/A   Mostly Cloudy
5:35 PM 35.6 °F 29.2 °F 8.6 °F 33% 30.11 in 10.0 mi NNW 8.1 mph - N/A   Partly Cloudy
5:55 PM 33.8 °F 27.7 °F 8.6 °F 35% 30.13 in 10.0 mi NNW 6.9 mph - N/A   Clear
6:15 PM 32.0 °F 26.4 °F 8.6 °F 38% 30.14 in 10.0 mi NNW 5.8 mph - N/A   Clear
6:35 PM 30.2 °F 25.4 °F 8.6 °F 40% 30.15 in 10.0 mi NW 4.6 mph - N/A   Clear
6:55 PM 26.6 °F 20.0 °F 6.8 °F 43% 30.17 in 10.0 mi WNW 5.8 mph - N/A   Clear
7:15 PM 26.6 °F 19.1 °F 6.8 °F 43% 30.17 in 10.0 mi WNW 6.9 mph - N/A   Clear
7:35 PM 26.6 °F 20.0 °F 6.8 °F 43% 30.18 in 10.0 mi WNW 5.8 mph - N/A   Clear
7:55 PM 24.8 °F 16.1 °F 6.8 °F 46% 30.19 in 10.0 mi WNW 8.1 mph - N/A   Clear
8:15 PM 24.8 °F 16.9 °F 6.8 °F 46% 30.19 in 10.0 mi WNW 6.9 mph - N/A   Clear
8:35 PM 23.0 °F 13.9 °F 6.8 °F 50% 30.20 in 10.0 mi WNW 8.1 mph - N/A   Clear
8:55 PM 23.0 °F 13.9 °F 6.8 °F 50% 30.21 in 10.0 mi NW 8.1 mph - N/A   Clear
9:15 PM 24.8 °F 16.9 °F 6.8 °F 46% 30.22 in 10.0 mi WNW 6.9 mph - N/A   Clear
9:35 PM 24.8 °F 16.9 °F 6.8 °F 46% 30.23 in 10.0 mi NW 6.9 mph - N/A   Clear
9:55 PM 24.8 °F 16.1 °F 8.6 °F 50% 30.24 in 10.0 mi WNW 8.1 mph - N/A   Clear
10:15 PM 23.0 °F 13.9 °F 6.8 °F 50% 30.24 in 10.0 mi WNW 8.1 mph - N/A   Clear
10:35 PM 21.2 °F 10.1 °F 5.0 °F 50% 30.25 in 10.0 mi WNW 10.4 mph - N/A   Clear
10:55 PM 23.0 °F 13.9 °F 8.6 °F 54% 30.25 in 10.0 mi NW 8.1 mph - N/A   Clear
11:15 PM 21.2 °F 12.6 °F 6.8 °F 54% 30.25 in 10.0 mi NW 6.9 mph - N/A   Clear
11:35 PM 21.2 °F 12.6 °F 6.8 °F 54% 30.25 in 10.0 mi North 6.9 mph - N/A   Clear
11:55 PM 19.4 °F 8.6 °F 6.8 °F 58% 30.26 in 10.0 mi SW 9.2 mph - N/A   Clear